[[{"header":{"parameterUnit":"m.s-1","parameterCategory":2,"la1":30.2991,"la2":30.254,"lo1":-89.0895,"lo2":-89.0444,"dy":0.0017,"dx":0.0017,"nx":28,"ny":28,"refTime":"2025-11-12T03:00:00:Z","depth":"0","parameterNumber":2,"parameterNumberName":"U-component_of_CURRENTS"},"data":[0,0,0,0,0,0,0,0,0,0,0,0,0,0,0,0,0,0,0,0,0,0,0,0,0,0,0,0,0,0,0,0,0,0,0,0,0,0,0,0,0,0,0,0,0,0,0,0,0,0,0,0,0,0,0,0,0,0,0.1285,0.1285,0,0.1209,0.1208,0.1206,0.1133,0.1132,0.1132,0.1131,0.1001,0.0998,0.0996,0,0,0,0,0,0,0,0,0,0,0,0,0,0.1344,0.1343,0.1285,0.1285,0.1284,0.1209,0.1207,0.1206,0.1133,0.1132,0.1132,0.1131,0.1002,0.0999,0.0995,0,0,0,0,0,0,0,0,0,0,0,0,0,0.1295,0.1343,0.1285,0.1241,0.1237,0.1209,0.1207,0.1206,0.1133,0.1132,0.1131,0.113,0.1003,0.0999,0.0995,0.0986,0,0,0.0982,0.098,0,0,0,0,0,0,0,0,0.1298,0.1292,0.1248,0.1244,0.1239,0.1183,0.1181,0.1131,0.1133,0.1169,0.1131,0.113,0.106,0.1051,0.1034,0.098,0.0975,0.0981,0.0979,0.0977,0.0975,0,0,0,0,0,0,0,0.1301,0.1295,0.1251,0.1248,0.1242,0.1217,0.1209,0.1171,0.1117,0.1165,0.1161,0.1158,0.1056,0.1039,0.103,0.0973,0.0981,0.0977,0.0975,0.0973,0.0947,0.0948,0,0,0,0,0,0,0.132,0.1299,0.1254,0.1249,0.1271,0.1217,0.1208,0.1199,0.1118,0.1106,0.1159,0.1155,0.1046,0.1036,0.1026,0.1056,0.0977,0.0973,0.097,0.0945,0.0947,0.0949,0,0,0,0,0,0,0.1322,0.1317,0.1257,0.1275,0.1266,0.1218,0.1208,0.1198,0.1192,0.1115,0.1101,0.1166,0.1045,0.1032,0.1011,0.1048,0.0971,0.0967,0.0942,0.0945,0.0948,0.1088,0,0,0,0,0,0,0.1323,0.1317,0.1325,0.1277,0.1266,0.1267,0.1209,0.1197,0.1193,0.1187,0.1116,0.1102,0.1044,0.1019,0.1007,0.1041,0.0963,0.094,0.0944,0.0947,0.1081,0.1095,0.1107,0,0,0,0,0,0.1326,0.1345,0.1325,0.132,0.1275,0.1269,0.1262,0.1221,0.1195,0.1209,0.1157,0.1104,0.1033,0.1017,0.1003,0.1036,0.0938,0.0943,0.0947,0.1075,0.1092,0.1107,0,0,0,0,0,0,0.1385,0.1338,0.1316,0.1322,0.1309,0.1259,0.1269,0.124,0.1209,0.12,0.1122,0.1106,0.1102,0.1055,0.1038,0.1041,0.098,0.0982,0.1082,0.1097,0.111,0.1116,0.096,0,0,0,0,0,0.1401,0.1394,0.1358,0.1367,0.1364,0.132,0.1314,0.1287,0.1252,0.1237,0.1187,0.1138,0.1108,0.1092,0.1052,0.1054,0.1052,0.1069,0.1082,0.1094,0.109,0.113,0.1147,0.0963,0.0963,0.0963,0,0,0.1425,0.1402,0.1397,0.1379,0.136,0.1365,0.1314,0.1317,0.1318,0.1228,0.1219,0.1181,0.1119,0.1119,0.1114,0.1084,0.1157,0.1099,0.1109,0.1099,0.1136,0.1154,0.117,0.0966,0.0965,0.0965,0,0,0.1474,0.1454,0.1464,0.1458,0.1443,0.1416,0.1427,0.139,0.1374,0.1363,0.1304,0.1292,0.1237,0.1208,0.1184,0.1249,0.1224,0.1244,0.1315,0.1355,0.1371,0.1384,0.1458,0.1477,0.1253,0.1253,0.1253,0,0.1505,0.1505,0.1474,0.1489,0.1486,0.1447,0.1464,0.1449,0.1411,0.1405,0.1378,0.1328,0.1278,0.1284,0.1304,0.1279,0.1311,0.1261,0.1374,0.1387,0.1398,0.147,0.1489,0.126,0.1259,0.1259,0.1258,0,0.1559,0.1559,0.1574,0.1564,0.1569,0.158,0.1555,0.1559,0.1532,0.1507,0.1511,0.1458,0.1427,0.1424,0.1376,0.1436,0.144,0.1389,0.1338,0.1426,0.1496,0.1514,0.1271,0.1268,0.1266,0.1264,0,0,0.1601,0.1605,0.1605,0.1607,0.1603,0.1605,0.1628,0.1626,0.1636,0.1617,0.1634,0.16,0.1578,0.155,0.1512,0.1542,0.1664,0.151,0.1508,0.1592,0.1798,0.1856,0.188,0.1643,0.1646,0.1648,0.1834,0,0.1642,0.1675,0.1667,0.1693,0.1703,0.1686,0.1707,0.1705,0.1694,0.1705,0.168,0.1674,0.1626,0.1622,0.1653,0.164,0.1707,0.162,0.1691,0.1693,0.1741,0.1901,0.195,0.2125,0.1851,0.1853,0.1855,0,0.1681,0.1693,0.173,0.1736,0.1741,0.1757,0.1774,0.1786,0.1799,0.1796,0.1807,0.1779,0.1814,0.1757,0.1834,0.1787,0.1814,0.1817,0.1823,0.1831,0.1783,0.198,0.2165,0.223,0.1881,0.1879,0.1877,0,0.1701,0.1725,0.1751,0.1756,0.1773,0.1789,0.1795,0.1813,0.1823,0.1855,0.1873,0.1903,0.1914,0.1955,0.196,0.1913,0.2058,0.1986,0.208,0.2085,0.2115,0.2118,0.2369,0.2074,0.2074,0.2073,0.2073,0,0.1726,0.1737,0.176,0.1771,0.1799,0.1809,0.1839,0.1853,0.1884,0.1907,0.1919,0.1954,0.1963,0.2026,0.2035,0.2139,0.2132,0.214,0.215,0.2171,0.2177,0.2215,0.2196,0.208,0.2079,0.2077,0.2076,0,0.1723,0.1744,0.1767,0.1797,0.1807,0.1822,0.1848,0.187,0.1909,0.1947,0.1963,0.2018,0.2113,0.2152,0.2225,0.2244,0.2326,0.2352,0.2399,0.2411,0.2542,0.2527,0.2523,0.2512,0.2511,0.2513,0.2516,0,0.1715,0.1733,0.1777,0.179,0.1798,0.1822,0.1841,0.1875,0.1897,0.198,0.2002,0.2111,0.2178,0.2354,0.2434,0.255,0.2451,0.2645,0.2547,0.2617,0.2606,0.2382,0.2354,0.2666,0.267,0.2672,0.2675,0,0.1691,0.1718,0.1741,0.1775,0.1796,0.1817,0.1844,0.187,0.1919,0.1973,0.206,0.2128,0.2325,0.2474,0.2639,0.2695,0.2623,0.2705,0.2764,0.2764,0.2547,0.2518,0.249,0.2699,0.2697,0.2695,0.2694,0.2693,0.1664,0.1675,0.1714,0.1747,0.1771,0.1796,0.1811,0.1853,0.1904,0.1971,0.2068,0.2183,0.243,0.2678,0.279,0.3012,0.2804,0.3007,0.2994,0.2767,0.2722,0.2773,0.2981,0.2981,0.298,0.2979,0.2979,0,0.1605,0.1635,0.1672,0.1707,0.1724,0.1752,0.1796,0.1809,0.186,0.1956,0.204,0.2298,0.2573,0.281,0.3116,0.3252,0.3126,0.3298,0.3032,0.3,0.3095,0.3075,0.3329,0.3329,0.3329,0.3329,0.3329,0.3329,0.1567,0.1586,0.1624,0.1646,0.1673,0.1679,0.1702,0.1738,0.18,0.1908,0.2035,0.2161,0.2493,0.3037,0.3376,0.3425,0.3305,0.3278,0.3223,0.3378,0.3348,0.332,0.3302,0.36,0.3601,0.3042,0.3039,0.3037]},{"header":{"parameterUnit":"m.s-1","parameterCategory":2,"la1":30.2991,"la2":30.254,"lo1":-89.0895,"lo2":-89.0444,"dy":0.0017,"dx":0.0017,"nx":28,"ny":28,"refTime":"2025-11-12T03:00:00:Z","depth":"0","parameterNumber":3,"parameterNumberName":"V-component_of_CURRENTS"},"data":[0,0,0,0,0,0,0,0,0,0,0,0,0,0,0,0,0,0,0,0,0,0,0,0,0,0,0,0,0,0,0,0,0,0,0,0,0,0,0,0,0,0,0,0,0,0,0,0,0,0,0,0,0,0,0,0,0,0,-0.089,-0.0891,0,-0.0925,-0.0925,-0.0926,-0.0936,-0.0936,-0.0936,-0.0936,-0.101,-0.1012,-0.1014,0,0,0,0,0,0,0,0,0,0,0,0,0,-0.0888,-0.0888,-0.089,-0.0891,-0.0891,-0.0925,-0.0925,-0.0926,-0.0936,-0.0936,-0.0936,-0.0936,-0.1009,-0.1012,-0.1014,0,0,0,0,0,0,0,0,0,0,0,0,0,-0.0903,-0.0888,-0.089,-0.09,-0.0901,-0.0925,-0.0925,-0.0926,-0.0937,-0.0936,-0.0936,-0.0936,-0.1008,-0.1012,-0.1015,-0.1041,0,0,-0.1025,-0.1026,0,0,0,0,0,0,0,0,-0.0902,-0.0903,-0.0898,-0.09,-0.0901,-0.0925,-0.0952,-0.0966,-0.0937,-0.0924,-0.0936,-0.0935,-0.0985,-0.099,-0.0998,-0.1045,-0.1048,-0.1025,-0.1027,-0.1028,-0.1029,0,0,0,0,0,0,0,-0.0901,-0.0902,-0.0905,-0.0899,-0.09,-0.0921,-0.0923,-0.0955,-0.0957,-0.0925,-0.0926,-0.0929,-0.0986,-0.0995,-0.1,-0.1049,-0.1025,-0.1028,-0.103,-0.1031,-0.1112,-0.1113,0,0,0,0,0,0,-0.0893,-0.0901,-0.0904,-0.0906,-0.09,-0.0921,-0.0923,-0.0918,-0.0956,-0.0961,-0.0929,-0.0929,-0.0989,-0.0996,-0.1003,-0.1026,-0.1028,-0.1032,-0.1033,-0.1112,-0.1112,-0.1113,0,0,0,0,0,0,-0.0893,-0.0893,-0.0902,-0.0904,-0.0907,-0.0921,-0.0917,-0.0919,-0.0932,-0.0958,-0.0964,-0.0939,-0.0989,-0.0998,-0.1023,-0.1029,-0.1033,-0.1036,-0.1112,-0.1112,-0.1113,-0.1079,0,0,0,0,0,0,-0.0892,-0.0892,-0.089,-0.0903,-0.0906,-0.092,-0.0917,-0.092,-0.0934,-0.0935,-0.0969,-0.0975,-0.099,-0.1018,-0.1026,-0.1034,-0.1039,-0.1112,-0.1112,-0.1112,-0.108,-0.1078,-0.1077,0,0,0,0,0,-0.0892,-0.089,-0.089,-0.0891,-0.0901,-0.092,-0.0924,-0.0934,-0.0935,-0.0944,-0.0956,-0.0975,-0.1026,-0.1021,-0.103,-0.1039,-0.1112,-0.1112,-0.1112,-0.1081,-0.1078,-0.1077,0,0,0,0,0,0,-0.0891,-0.0891,-0.0891,-0.089,-0.0905,-0.0922,-0.0931,-0.0938,-0.0956,-0.0956,-0.0978,-0.0985,-0.101,-0.1031,-0.1024,-0.1063,-0.1072,-0.1075,-0.1045,-0.1043,-0.1042,-0.1024,-0.1041,0,0,0,0,0,-0.0889,-0.0883,-0.0895,-0.0894,-0.0903,-0.0919,-0.0929,-0.0935,-0.095,-0.0958,-0.0978,-0.1,-0.1021,-0.1035,-0.1059,-0.1084,-0.1094,-0.1096,-0.1094,-0.1093,-0.1085,-0.1108,-0.1108,-0.1114,-0.1114,-0.1114,0,0,-0.0888,-0.0887,-0.0884,-0.0893,-0.0906,-0.0915,-0.0924,-0.0939,-0.0941,-0.0965,-0.0977,-0.0999,-0.1026,-0.1046,-0.1059,-0.1063,-0.1095,-0.1093,-0.1091,-0.1085,-0.1109,-0.1108,-0.1107,-0.1114,-0.1114,-0.1114,0,0,-0.0884,-0.0884,-0.0881,-0.0894,-0.0909,-0.0916,-0.0921,-0.0941,-0.0946,-0.0962,-0.0975,-0.0992,-0.1033,-0.1043,-0.1055,-0.1062,-0.1086,-0.1079,-0.1058,-0.108,-0.108,-0.1079,-0.1081,-0.1081,-0.1078,-0.1077,-0.1077,0,-0.0881,-0.0876,-0.0887,-0.0893,-0.0898,-0.0916,-0.092,-0.0931,-0.0952,-0.0953,-0.0963,-0.1,-0.1026,-0.1038,-0.1038,-0.1058,-0.107,-0.1061,-0.1077,-0.1077,-0.1077,-0.1079,-0.108,-0.1076,-0.1076,-0.1076,-0.1076,0,-0.0882,-0.0878,-0.0881,-0.0884,-0.0896,-0.0903,-0.0917,-0.0924,-0.0932,-0.0937,-0.0953,-0.0981,-0.0999,-0.1015,-0.1029,-0.1044,-0.1051,-0.1072,-0.1078,-0.1074,-0.1077,-0.1078,-0.1074,-0.1074,-0.1075,-0.1075,0,0,-0.0862,-0.0875,-0.0874,-0.087,-0.0889,-0.0894,-0.0899,-0.0904,-0.0897,-0.092,-0.0912,-0.0948,-0.096,-0.0974,-0.0998,-0.1017,-0.1028,-0.1043,-0.1045,-0.1037,-0.1065,-0.1063,-0.1064,-0.1057,-0.1057,-0.1057,-0.1062,0,-0.0854,-0.0854,-0.0864,-0.0858,-0.086,-0.0874,-0.0875,-0.0881,-0.0887,-0.0885,-0.0906,-0.0915,-0.0946,-0.0954,-0.0977,-0.1012,-0.1031,-0.1024,-0.1077,-0.1078,-0.107,-0.1065,-0.1056,-0.106,-0.1063,-0.1063,-0.1064,0,-0.0846,-0.0844,-0.0841,-0.0835,-0.0837,-0.0836,-0.083,-0.0833,-0.0838,-0.0845,-0.0854,-0.0872,-0.0888,-0.0924,-0.0973,-0.0968,-0.1015,-0.1045,-0.1047,-0.1056,-0.1078,-0.1068,-0.1062,-0.1096,-0.1065,-0.1065,-0.1065,0,-0.082,-0.082,-0.081,-0.0813,-0.0818,-0.0812,-0.0812,-0.0818,-0.0813,-0.0814,-0.081,-0.0834,-0.0843,-0.0899,-0.0954,-0.0971,-0.1007,-0.1041,-0.1079,-0.1079,-0.1086,-0.1086,-0.1113,-0.1088,-0.1088,-0.1088,-0.1088,0,-0.0799,-0.0787,-0.0794,-0.079,-0.0774,-0.0787,-0.0769,-0.0773,-0.0772,-0.0758,-0.0785,-0.078,-0.0843,-0.0868,-0.0932,-0.0991,-0.0991,-0.1067,-0.1082,-0.1073,-0.1072,-0.1115,-0.106,-0.1089,-0.1088,-0.1088,-0.1088,0,-0.0769,-0.0775,-0.0762,-0.0764,-0.0762,-0.075,-0.0744,-0.0732,-0.0735,-0.0717,-0.0716,-0.0735,-0.0767,-0.082,-0.0897,-0.0958,-0.1046,-0.1047,-0.1017,-0.1029,-0.1107,-0.1048,-0.1159,-0.1222,-0.1092,-0.1092,-0.1092,0,-0.0755,-0.0747,-0.0744,-0.0736,-0.0734,-0.0721,-0.0715,-0.0716,-0.0703,-0.069,-0.0678,-0.0694,-0.0702,-0.0788,-0.0889,-0.0978,-0.1039,-0.1039,-0.108,-0.11,-0.1046,-0.1143,-0.1196,-0.1072,-0.1072,-0.1072,-0.1072,0,-0.0731,-0.073,-0.0725,-0.0712,-0.0701,-0.0684,-0.067,-0.0657,-0.0651,-0.0632,-0.0612,-0.0612,-0.0689,-0.0757,-0.087,-0.0951,-0.1066,-0.1041,-0.1078,-0.1035,-0.1125,-0.1195,-0.1064,-0.107,-0.1071,-0.1071,-0.1071,-0.1071,-0.0719,-0.0707,-0.0703,-0.0689,-0.0673,-0.0648,-0.0628,-0.0607,-0.0578,-0.0527,-0.0547,-0.0503,-0.0602,-0.0755,-0.0893,-0.1058,-0.1081,-0.1109,-0.1035,-0.1139,-0.12,-0.1052,-0.1069,-0.1069,-0.1069,-0.1069,-0.1069,0,-0.0706,-0.0693,-0.068,-0.0657,-0.0633,-0.063,-0.06,-0.0568,-0.0523,-0.0453,-0.0421,-0.0384,-0.0517,-0.0674,-0.0846,-0.0988,-0.1195,-0.1067,-0.1187,-0.1244,-0.1122,-0.1122,-0.113,-0.113,-0.113,-0.113,-0.113,-0.113,-0.0695,-0.0681,-0.0672,-0.063,-0.0609,-0.0568,-0.0547,-0.0492,-0.0433,-0.0299,-0.0206,-0.0149,-0.0079,-0.0424,-0.0701,-0.0855,-0.1065,-0.1135,-0.121,-0.1062,-0.1062,-0.1062,-0.1059,-0.1053,-0.1053,-0.1464,-0.1465,-0.1467]}],[{"header":{"parameterUnit":"m.s-1","parameterCategory":2,"la1":30.2991,"la2":30.254,"lo1":-89.0895,"lo2":-89.0444,"dy":0.0017,"dx":0.0017,"nx":28,"ny":28,"refTime":"2025-11-12T03:00:00:Z","depth":"2","parameterNumber":2,"parameterNumberName":"U-component_of_CURRENTS"},"data":[0,0,0,0,0,0,0,0,0,0,0,0,0,0,0,0,0,0,0,0,0,0,0,0,0,0,0,0,0,0,0,0,0,0,0,0,0,0,0,0,0,0,0,0,0,0,0,0,0,0,0,0,0,0,0,0,0,0,-0.0354,-0.0353,0,-0.0276,-0.0275,-0.0275,-0.0233,-0.0233,-0.0233,-0.0233,-0.0159,-0.0158,-0.0156,0,0,0,0,0,0,0,0,0,0,0,0,0,-0.0466,-0.0464,-0.0354,-0.0353,-0.0352,-0.0276,-0.0275,-0.0274,-0.0233,-0.0233,-0.0233,-0.0233,-0.016,-0.0158,-0.0156,0,0,0,0,0,0,0,0,0,0,0,0,0,-0.0407,-0.0464,-0.0354,-0.0321,-0.0318,-0.0277,-0.0275,-0.0274,-0.0233,-0.0233,-0.0233,-0.0233,-0.0161,-0.0158,-0.0155,-0.0144,0,0,-0.0147,-0.0146,0,0,0,0,0,0,0,0,-0.041,-0.0403,-0.0327,-0.0323,-0.0319,-0.0263,-0.0288,-0.023,-0.0233,-0.0266,-0.0233,-0.0233,-0.0194,-0.0189,-0.0176,-0.014,-0.0137,-0.0147,-0.0145,-0.0144,-0.0143,0,0,0,0,0,0,0,-0.0414,-0.0406,-0.0324,-0.0326,-0.0321,-0.0311,-0.0302,-0.0277,-0.0233,-0.0263,-0.026,-0.025,-0.0192,-0.0179,-0.0174,-0.0136,-0.0147,-0.0144,-0.0143,-0.0142,-0.0065,-0.0064,0,0,0,0,0,0,-0.0422,-0.041,-0.0326,-0.0322,-0.0364,-0.0309,-0.0299,-0.0282,-0.0233,-0.0225,-0.025,-0.0248,-0.0183,-0.0177,-0.0171,-0.013,-0.0144,-0.0141,-0.014,-0.0065,-0.0064,-0.0064,0,0,0,0,0,0,-0.0425,-0.0415,-0.033,-0.0364,-0.0352,-0.0307,-0.0288,-0.0281,-0.0259,-0.0223,-0.0215,-0.0235,-0.0183,-0.0175,-0.014,-0.0128,-0.014,-0.0138,-0.0065,-0.0065,-0.0064,-0.0064,0,0,0,0,0,0,-0.0428,-0.0416,-0.0405,-0.0364,-0.035,-0.0301,-0.0288,-0.028,-0.0253,-0.0249,-0.0207,-0.0201,-0.0182,-0.0144,-0.0137,-0.0125,-0.0136,-0.0066,-0.0065,-0.0064,-0.0065,-0.0064,-0.0063,0,0,0,0,0,-0.0432,-0.0416,-0.0405,-0.0395,-0.0336,-0.0301,-0.0293,-0.0261,-0.0252,-0.0241,-0.0212,-0.0202,-0.0134,-0.0141,-0.0133,-0.012,-0.0066,-0.0065,-0.0064,-0.0065,-0.0064,-0.0063,0,0,0,0,0,0,-0.0458,-0.0409,-0.0396,-0.0366,-0.0335,-0.0293,-0.0276,-0.0259,-0.0226,-0.0221,-0.0193,-0.0183,-0.015,-0.0136,-0.0144,-0.0096,-0.01,-0.0097,-0.0103,-0.0102,-0.0101,-0.0087,-0.0133,0,0,0,0,0,-0.0459,-0.0434,-0.0392,-0.0368,-0.0352,-0.0315,-0.0295,-0.0275,-0.0242,-0.0227,-0.0198,-0.0169,-0.0141,-0.0122,-0.0098,-0.0068,-0.004,-0.0056,-0.0055,-0.0054,-0.0038,0.0004,0.0011,-0.0061,-0.0061,-0.0061,0,0,-0.0462,-0.0432,-0.0417,-0.0372,-0.0344,-0.0314,-0.0302,-0.027,-0.0244,-0.0224,-0.0181,-0.0163,-0.0133,-0.01,-0.0084,-0.0085,-0.0018,-0.0053,-0.0053,-0.0036,0.0006,0.0013,0.002,-0.006,-0.006,-0.006,0,0,-0.0453,-0.0428,-0.0403,-0.0376,-0.0334,-0.0312,-0.0303,-0.0259,-0.0238,-0.0201,-0.0181,-0.0152,-0.011,-0.0083,-0.0065,-0.0043,-0.0016,-0.0042,-0.002,0.002,0.0027,0.0033,0.0082,0.0092,-0.0039,-0.0039,-0.0039,0,-0.046,-0.0416,-0.0392,-0.0361,-0.0332,-0.031,-0.0277,-0.0255,-0.0207,-0.0183,-0.0187,-0.0116,-0.0098,-0.0047,-0.0042,-0.0039,-0.0009,-0.0028,0.0023,0.0029,0.0035,0.0084,0.0096,-0.0039,-0.0039,-0.0039,-0.0039,0,-0.0429,-0.0394,-0.0377,-0.0327,-0.0301,-0.0269,-0.0235,-0.021,-0.0189,-0.0162,-0.0113,-0.0089,-0.004,-0.0042,-0.0032,0.002,0.003,0.0016,0.002,0.0043,0.0093,0.0105,-0.0039,-0.0039,-0.0039,-0.0039,0,0,-0.0439,-0.0368,-0.0359,-0.0327,-0.0277,-0.0249,-0.0212,-0.0163,-0.0126,-0.0102,-0.0046,-0.0017,-0.0002,0.002,0.0031,0.0058,0.012,0.0058,0.006,0.0108,0.0223,0.0225,0.0239,0.0115,0.0117,0.0118,0.0241,0,-0.0417,-0.0354,-0.0323,-0.0263,-0.0226,-0.0195,-0.0156,-0.0116,-0.0083,-0.0031,-0.0009,0.0044,0.0021,0.0052,0.0074,0.0113,0.0152,0.0089,0.0193,0.0197,0.0197,0.0253,0.0119,0.0218,0.0253,0.0255,0.0257,0,-0.039,-0.0349,-0.0285,-0.0214,-0.0195,-0.0159,-0.0088,-0.0051,0.001,0.004,0.0084,0.0107,0.0164,0.0134,0.0217,0.0179,0.0211,0.0228,0.0233,0.0247,0.0222,0.02,0.0238,0.0277,0.0276,0.0274,0.0273,0,-0.0396,-0.032,-0.0265,-0.0241,-0.0165,-0.0128,-0.0088,-0.0026,0.0014,0.0095,0.0135,0.0193,0.024,0.0276,0.031,0.0277,0.0398,0.0358,0.0392,0.0393,0.0308,0.0298,0.0428,0.0428,0.0428,0.0427,0.0427,0,-0.0379,-0.0335,-0.026,-0.023,-0.0166,-0.0115,-0.0046,0.0,0.0072,0.0126,0.0176,0.0221,0.0278,0.034,0.0355,0.0423,0.0442,0.0424,0.0433,0.0305,0.0293,0.0361,0.0351,0.0432,0.0431,0.043,0.0429,0,-0.039,-0.0339,-0.0276,-0.0193,-0.0164,-0.0119,-0.0032,0.0013,0.0087,0.0162,0.0194,0.0273,0.0361,0.0418,0.0499,0.0496,0.0549,0.0566,0.0421,0.041,0.0507,0.0496,0.063,0.0631,0.0632,0.0633,0.0634,0,-0.0387,-0.0355,-0.0264,-0.0227,-0.0185,-0.0115,-0.0069,0.0011,0.0052,0.0175,0.0202,0.0325,0.0374,0.0505,0.0546,0.062,0.0612,0.0537,0.0447,0.0537,0.0532,0.0519,0.0507,0.0336,0.0334,0.0333,0.0332,0,-0.0391,-0.0357,-0.0309,-0.0235,-0.0178,-0.012,-0.0053,-0.0022,0.0073,0.0135,0.0214,0.0269,0.0404,0.043,0.0546,0.0537,0.0513,0.0512,0.0659,0.0304,0.027,0.0261,0.0257,0.0319,0.032,0.0321,0.0322,0.0323,-0.0398,-0.0371,-0.0305,-0.0237,-0.018,-0.0126,-0.0087,-0.0032,0.0029,0.0119,0.0165,0.0248,0.0256,0.0391,0.0431,0.049,0.0504,0.043,0.043,0.0432,0.0375,0.0344,0.0398,0.0399,0.0401,0.0402,0.0403,0,-0.0401,-0.0356,-0.0307,-0.0228,-0.0184,-0.0133,-0.0074,-0.0057,-0.0005,0.0078,0.0135,0.0152,0.0168,0.0261,0.034,0.0362,0.0314,0.0331,0.0239,0.0248,0.0257,0.0188,0.0163,0.0164,0.0165,0.0165,0,0,-0.0395,-0.0351,-0.0325,-0.0247,-0.0186,-0.0122,-0.0087,-0.0078,-0.0035,0.0048,0.0122,0.0093,0.0169,0.0156,0.0142,0.0195,0.0217,0.0167,0.0331,0.0223,0.0233,0.026,0.0157,0,0,0,0,0]},{"header":{"parameterUnit":"m.s-1","parameterCategory":2,"la1":30.2991,"la2":30.254,"lo1":-89.0895,"lo2":-89.0444,"dy":0.0017,"dx":0.0017,"nx":28,"ny":28,"refTime":"2025-11-12T03:00:00:Z","depth":"2","parameterNumber":3,"parameterNumberName":"V-component_of_CURRENTS"},"data":[0,0,0,0,0,0,0,0,0,0,0,0,0,0,0,0,0,0,0,0,0,0,0,0,0,0,0,0,0,0,0,0,0,0,0,0,0,0,0,0,0,0,0,0,0,0,0,0,0,0,0,0,0,0,0,0,0,0,-0.0051,-0.0052,0,-0.0088,-0.0088,-0.0088,-0.0108,-0.0108,-0.0108,-0.0108,-0.011,-0.011,-0.011,0,0,0,0,0,0,0,0,0,0,0,0,0,0.0026,0.0025,-0.0051,-0.0052,-0.0052,-0.0088,-0.0088,-0.0089,-0.0108,-0.0108,-0.0108,-0.0108,-0.011,-0.011,-0.011,0,0,0,0,0,0,0,0,0,0,0,0,0,-0.0007,0.0024,-0.0051,-0.0067,-0.0069,-0.0088,-0.0088,-0.0089,-0.0108,-0.0108,-0.0108,-0.0108,-0.011,-0.011,-0.011,-0.0105,0,0,-0.011,-0.011,0,0,0,0,0,0,0,0,-0.0006,-0.001,-0.0064,-0.0066,-0.0068,-0.0095,-0.0062,-0.0093,-0.0107,-0.0091,-0.0108,-0.0108,-0.0103,-0.0103,-0.0108,-0.0105,-0.0105,-0.011,-0.011,-0.011,-0.011,0,0,0,0,0,0,0,-0.0003,-0.0009,-0.0064,-0.0065,-0.0067,-0.0065,-0.007,-0.0068,-0.0093,-0.0093,-0.0095,-0.0101,-0.0103,-0.0108,-0.0108,-0.0105,-0.011,-0.011,-0.0109,-0.0109,-0.0125,-0.0126,0,0,0,0,0,0,-0.0003,-0.0007,-0.0063,-0.0066,-0.0038,-0.0066,-0.0072,-0.0085,-0.0094,-0.0097,-0.0101,-0.0102,-0.0108,-0.0108,-0.0108,-0.0116,-0.011,-0.0109,-0.0109,-0.0125,-0.0126,-0.0126,0,0,0,0,0,0,-0.0001,-0.0008,-0.0062,-0.0037,-0.0044,-0.0067,-0.0082,-0.0085,-0.0093,-0.0101,-0.0102,-0.0105,-0.0108,-0.0108,-0.0116,-0.0116,-0.0109,-0.0109,-0.0124,-0.0125,-0.0126,-0.0123,0,0,0,0,0,0,0.0001,-0.0007,-0.0011,-0.0038,-0.0046,-0.0071,-0.0082,-0.0086,-0.0097,-0.0099,-0.0105,-0.0106,-0.0109,-0.0116,-0.0116,-0.0115,-0.0109,-0.0124,-0.0125,-0.0126,-0.0122,-0.0123,-0.0124,0,0,0,0,0,0.0004,0.0001,-0.0011,-0.0018,-0.0052,-0.0071,-0.0074,-0.009,-0.0097,-0.0098,-0.011,-0.0106,-0.0122,-0.0116,-0.0116,-0.0115,-0.0123,-0.0124,-0.0125,-0.0122,-0.0123,-0.0124,0,0,0,0,0,0,0.0038,-0.0003,-0.0016,-0.003,-0.0049,-0.0074,-0.0075,-0.0089,-0.01,-0.0101,-0.011,-0.0111,-0.012,-0.012,-0.0113,-0.0125,-0.0122,-0.0123,-0.012,-0.0121,-0.0122,-0.0118,-0.0109,0,0,0,0,0,0.0041,0.0025,-0.0008,-0.0017,-0.0027,-0.0052,-0.006,-0.0073,-0.009,-0.0095,-0.0104,-0.0113,-0.0123,-0.0124,-0.0131,-0.0132,-0.0131,-0.0133,-0.0134,-0.0135,-0.0133,-0.0139,-0.014,-0.013,-0.013,-0.013,0,0,0.0053,0.0029,0.0021,-0.0011,-0.0026,-0.0037,-0.0057,-0.0069,-0.0077,-0.0092,-0.0101,-0.0116,-0.0126,-0.0134,-0.0137,-0.0133,-0.0137,-0.0137,-0.0137,-0.0134,-0.014,-0.0141,-0.0141,-0.0131,-0.013,-0.013,0,0,0.0071,0.0046,0.004,0.0022,-0.0004,-0.0022,-0.0027,-0.0056,-0.0067,-0.0082,-0.0098,-0.0114,-0.0125,-0.0135,-0.0141,-0.015,-0.0145,-0.0154,-0.015,-0.0156,-0.0156,-0.0157,-0.0151,-0.0151,-0.0151,-0.0151,-0.0151,0,0.0089,0.0071,0.0039,0.003,0.002,-0.0016,-0.0018,-0.0036,-0.0064,-0.007,-0.0083,-0.0113,-0.0125,-0.0134,-0.0147,-0.015,-0.0152,-0.0142,-0.0156,-0.0156,-0.0157,-0.0151,-0.0151,-0.0151,-0.0151,-0.0151,-0.0151,0,0.0098,0.0087,0.0084,0.0056,0.0044,0.0035,0.0002,-0.001,-0.0032,-0.0052,-0.0072,-0.0098,-0.0114,-0.0126,-0.0143,-0.0154,-0.0152,-0.0158,-0.0149,-0.0157,-0.0151,-0.0151,-0.0151,-0.0151,-0.0151,-0.0151,0,0,0.0127,0.0097,0.0096,0.0093,0.0056,0.0048,0.0033,0.0012,0.0012,-0.0028,-0.0029,-0.0074,-0.0095,-0.0105,-0.0127,-0.014,-0.0153,-0.0155,-0.0156,-0.0143,-0.0159,-0.0156,-0.0156,-0.0163,-0.0163,-0.0163,-0.015,0,0.0145,0.0141,0.0118,0.0118,0.0113,0.0081,0.0074,0.0051,0.0029,0.002,-0.0022,-0.0033,-0.0084,-0.009,-0.0118,-0.0143,-0.0154,-0.0155,-0.0159,-0.0158,-0.015,-0.0157,-0.0164,-0.0153,-0.015,-0.015,-0.015,0,0.0158,0.0154,0.016,0.015,0.0146,0.0145,0.0134,0.0123,0.0096,0.0081,0.0049,0.0018,-0.0021,-0.0055,-0.0109,-0.011,-0.0138,-0.0157,-0.0157,-0.0156,-0.0156,-0.0147,-0.0153,-0.015,-0.015,-0.015,-0.015,0,0.0191,0.0182,0.0191,0.0185,0.0169,0.0174,0.0167,0.0146,0.0149,0.0125,0.0128,0.0069,0.0056,-0.0003,-0.0074,-0.0089,-0.012,-0.0137,-0.0156,-0.0155,-0.0161,-0.0161,-0.0163,-0.0163,-0.0163,-0.0163,-0.0163,0,0.0212,0.0222,0.0212,0.0217,0.0239,0.0213,0.0236,0.0222,0.0215,0.0226,0.0164,0.016,0.0065,0.0026,-0.0045,-0.0103,-0.0098,-0.0153,-0.0154,-0.016,-0.016,-0.016,-0.016,-0.0162,-0.0163,-0.0163,-0.0163,0,0.0248,0.0237,0.0254,0.0252,0.0256,0.0275,0.0285,0.0299,0.0286,0.0303,0.0298,0.0237,0.0176,0.0091,0.0014,-0.0048,-0.0106,-0.0122,-0.012,-0.0121,-0.0143,-0.0143,-0.0141,-0.0141,-0.014,-0.014,-0.014,0,0.0268,0.0278,0.0292,0.031,0.0315,0.0335,0.035,0.0339,0.0349,0.0344,0.0352,0.0307,0.0256,0.0145,0.0041,-0.0056,-0.0084,-0.0117,-0.0152,-0.0141,-0.0142,-0.0142,-0.0142,-0.0156,-0.0156,-0.0156,-0.0156,0,0.0313,0.0318,0.0331,0.0368,0.0391,0.0408,0.0424,0.0436,0.0422,0.0438,0.0424,0.0388,0.0282,0.0158,0.004,-0.003,-0.0109,-0.012,-0.0106,-0.0162,-0.0155,-0.0156,-0.0156,-0.0157,-0.0157,-0.0157,-0.0157,-0.0157,0.0357,0.0373,0.0392,0.043,0.0459,0.047,0.0489,0.0496,0.0514,0.0482,0.0447,0.0373,0.024,0.0057,-0.0024,-0.0091,-0.0088,-0.0148,-0.0148,-0.0148,-0.0153,-0.0147,-0.0147,-0.0147,-0.0147,-0.0147,-0.0147,0,0.0408,0.0421,0.0453,0.0483,0.0516,0.0531,0.0539,0.053,0.0557,0.0467,0.0428,0.0248,0.0136,0.0022,-0.0066,-0.0133,-0.0144,-0.017,-0.0179,-0.0178,-0.0177,-0.0184,-0.0186,-0.0187,-0.0187,-0.0187,0,0,0.0434,0.0464,0.0469,0.0527,0.0566,0.0605,0.0618,0.0591,0.0529,0.04,0.0317,0.0185,0.0094,-0.0012,-0.0094,-0.0126,-0.0141,-0.0142,-0.0105,-0.0105,-0.0104,-0.0158,-0.0168,0,0,0,0,0]}],[{"header":{"parameterUnit":"m.s-1","parameterCategory":2,"la1":30.2991,"la2":30.254,"lo1":-89.0895,"lo2":-89.0444,"dy":0.0017,"dx":0.0017,"nx":28,"ny":28,"refTime":"2025-11-12T03:00:00:Z","depth":"4","parameterNumber":2,"parameterNumberName":"U-component_of_CURRENTS"},"data":[0,0,0,0,0,0,0,0,0,0,0,0,0,0,0,0,0,0,0,0,0,0,0,0,0,0,0,0,0,0,0,0,0,0,0,0,0,0,0,0,0,0,0,0,0,0,0,0,0,0,0,0,0,0,0,0,0,0,-0.0345,-0.0345,0,-0.0357,-0.0357,-0.0357,-0.0359,-0.0359,-0.0359,-0.0359,-0.0367,-0.0368,-0.0368,0,0,0,0,0,0,0,0,0,0,0,0,0,-0.0326,-0.0326,-0.0345,-0.0345,-0.0346,-0.0357,-0.0357,-0.0357,-0.0359,-0.0359,-0.0359,-0.0359,-0.0367,-0.0368,-0.0368,0,0,0,0,0,0,0,0,0,0,0,0,0,-0.0335,-0.0326,-0.0345,-0.0348,-0.0348,-0.0357,-0.0357,-0.0357,-0.0359,-0.0359,-0.0359,-0.0359,-0.0367,-0.0368,-0.0368,-0.0374,0,0,-0.037,-0.037,0,0,0,0,0,0,0,0,-0.0335,-0.0336,-0.0347,-0.0348,-0.0348,-0.0356,-0.0353,-0.0362,-0.0359,-0.0355,-0.0359,-0.0358,-0.0364,-0.0364,-0.0367,-0.0374,-0.0374,-0.037,-0.037,-0.037,-0.037,0,0,0,0,0,0,0,-0.0334,-0.0336,-0.035,-0.0348,-0.0348,-0.0349,-0.035,-0.0355,-0.036,-0.0355,-0.0355,-0.0357,-0.0364,-0.0366,-0.0367,-0.0374,-0.037,-0.037,-0.037,-0.037,-0.0396,-0.0397,0,0,0,0,0,0,-0.0333,-0.0335,-0.0349,-0.035,-0.0341,-0.0349,-0.0351,-0.0354,-0.036,-0.036,-0.0357,-0.0357,-0.0365,-0.0366,-0.0367,-0.0378,-0.037,-0.0371,-0.0371,-0.0396,-0.0396,-0.0397,0,0,0,0,0,0,-0.0333,-0.0334,-0.0349,-0.0343,-0.0345,-0.035,-0.0353,-0.0354,-0.0357,-0.0361,-0.0362,-0.036,-0.0365,-0.0367,-0.0375,-0.0378,-0.0371,-0.0371,-0.0395,-0.0396,-0.0397,-0.0396,0,0,0,0,0,0,-0.0332,-0.0334,-0.034,-0.0343,-0.0345,-0.0355,-0.0353,-0.0354,-0.0359,-0.0359,-0.0364,-0.0364,-0.0365,-0.0374,-0.0375,-0.0378,-0.0372,-0.0395,-0.0396,-0.0396,-0.0395,-0.0396,-0.0397,0,0,0,0,0,-0.0331,-0.0338,-0.034,-0.0342,-0.0351,-0.0355,-0.0356,-0.0359,-0.0359,-0.0362,-0.0366,-0.0364,-0.038,-0.0375,-0.0376,-0.0379,-0.0395,-0.0396,-0.0396,-0.0395,-0.0396,-0.0397,0,0,0,0,0,0,-0.0333,-0.0339,-0.0341,-0.0349,-0.0353,-0.0356,-0.0361,-0.0361,-0.0367,-0.0368,-0.0369,-0.037,-0.0379,-0.0381,-0.0376,-0.039,-0.0387,-0.0388,-0.0386,-0.0387,-0.0388,-0.0379,-0.0372,0,0,0,0,0,-0.0336,-0.0344,-0.0346,-0.0354,-0.0356,-0.0359,-0.0362,-0.0362,-0.0366,-0.0369,-0.0371,-0.0377,-0.0384,-0.0387,-0.0393,-0.04,-0.0398,-0.0404,-0.0405,-0.0405,-0.04,-0.0404,-0.0404,-0.04,-0.04,-0.04,0,0,-0.0339,-0.0344,-0.0349,-0.0355,-0.0359,-0.0363,-0.036,-0.0366,-0.0368,-0.0369,-0.0376,-0.038,-0.0387,-0.0395,-0.0399,-0.0397,-0.0406,-0.0407,-0.0407,-0.0401,-0.0405,-0.0405,-0.0405,-0.04,-0.04,-0.04,0,0,-0.0347,-0.0353,-0.036,-0.0363,-0.0368,-0.0369,-0.037,-0.0373,-0.0374,-0.038,-0.0382,-0.0386,-0.0398,-0.04,-0.0403,-0.0413,-0.0411,-0.0419,-0.0415,-0.042,-0.042,-0.042,-0.0416,-0.0416,-0.0419,-0.0419,-0.0419,0,-0.0351,-0.0358,-0.0363,-0.0368,-0.037,-0.0372,-0.0375,-0.0377,-0.0381,-0.0381,-0.0383,-0.0394,-0.0398,-0.0405,-0.0407,-0.0413,-0.0415,-0.0409,-0.042,-0.042,-0.042,-0.0417,-0.0416,-0.0419,-0.0419,-0.0419,-0.0419,0,-0.0358,-0.0365,-0.037,-0.0377,-0.038,-0.0384,-0.0385,-0.0388,-0.0389,-0.0388,-0.0394,-0.0399,-0.0404,-0.0408,-0.041,-0.0414,-0.0415,-0.042,-0.0414,-0.042,-0.0416,-0.0416,-0.042,-0.042,-0.042,-0.042,0,0,-0.0362,-0.0373,-0.0375,-0.0378,-0.0384,-0.0386,-0.0391,-0.0392,-0.0394,-0.0396,-0.0397,-0.0404,-0.0402,-0.0406,-0.041,-0.0411,-0.0411,-0.0415,-0.0415,-0.0407,-0.0417,-0.0352,-0.0346,-0.0421,-0.0421,-0.0421,-0.0414,0,-0.0365,-0.0375,-0.038,-0.0387,-0.039,-0.0393,-0.0397,-0.0399,-0.04,-0.0401,-0.04,-0.0405,-0.0403,-0.0407,-0.0408,-0.0412,-0.0411,-0.0412,-0.0417,-0.0417,-0.0354,-0.0343,-0.0421,-0.0414,-0.0414,-0.0414,-0.0413,0,-0.0367,-0.0373,-0.0381,-0.0389,-0.0391,-0.0396,-0.04,-0.0404,-0.0405,-0.0407,-0.0406,-0.0406,-0.0405,-0.0407,-0.0407,-0.041,-0.0411,-0.0412,-0.0412,-0.0349,-0.0351,-0.0408,-0.0413,-0.0413,-0.0413,-0.0413,-0.0413,0,-0.0361,-0.0372,-0.0379,-0.0382,-0.0392,-0.0395,-0.04,-0.0403,-0.0405,-0.0408,-0.0409,-0.0409,-0.0409,-0.0411,-0.0405,-0.0411,-0.0404,-0.0415,-0.0355,-0.0351,-0.0413,-0.0413,-0.0413,-0.0413,-0.0413,-0.0413,-0.0413,0,-0.0356,-0.0362,-0.0377,-0.0379,-0.0384,-0.0393,-0.0397,-0.0401,-0.0407,-0.0405,-0.041,-0.0405,-0.0411,-0.0405,-0.0404,-0.0367,-0.0403,-0.0343,-0.034,-0.0414,-0.0414,-0.0413,-0.0413,-0.0412,-0.0412,-0.0413,-0.0413,0,-0.0345,-0.0357,-0.0364,-0.0378,-0.0381,-0.0384,-0.0393,-0.0394,-0.0405,-0.0402,-0.0402,-0.0403,-0.0383,-0.038,-0.0378,-0.0356,-0.0338,-0.032,-0.0389,-0.0393,-0.0285,-0.0286,-0.0249,-0.0247,-0.0245,-0.0243,-0.0241,0,-0.0338,-0.0343,-0.036,-0.0361,-0.0366,-0.0372,-0.0373,-0.0387,-0.0386,-0.0393,-0.0387,-0.0372,-0.0364,-0.031,-0.0311,-0.0285,-0.0281,-0.0272,-0.0279,-0.0265,-0.0267,-0.027,-0.0273,-0.0238,-0.0237,-0.0237,-0.0236,0,-0.0324,-0.0336,-0.0342,-0.0344,-0.0346,-0.0345,-0.0347,-0.0345,-0.0357,-0.0377,-0.0353,-0.0326,-0.0296,-0.0272,-0.0246,-0.0235,-0.0277,-0.025,-0.0255,-0.0261,-0.0251,-0.0256,-0.0261,-0.0229,-0.023,-0.0231,-0.0231,0,-0.0315,-0.0314,-0.0323,-0.0321,-0.032,-0.0303,-0.0313,-0.0305,-0.0307,-0.0321,-0.0312,-0.0295,-0.0299,-0.0245,-0.0228,-0.0196,-0.0189,-0.0185,-0.0193,-0.0201,-0.0182,-0.0162,-0.0099,0,0,0,0,0,-0.0302,-0.0296,-0.0294,-0.0282,-0.0277,-0.0271,-0.0285,-0.0297,-0.0316,-0.0289,-0.0298,-0.0267,-0.0217,-0.021,-0.0163,-0.0186,-0.0185,-0.0128,-0.0183,-0.0189,-0.0197,-0.0177,0,0,0,0,0,0,-0.0292,-0.0292,-0.0287,-0.0246,-0.0224,-0.0211,-0.0215,-0.0231,-0.022,-0.0244,-0.0223,-0.0234,-0.0194,-0.0233,-0.0152,-0.0146,-0.0169,-0.012,-0.0118,-0.0184,-0.0192,-0.0199,-0.018,0,0,0,0,0]},{"header":{"parameterUnit":"m.s-1","parameterCategory":2,"la1":30.2991,"la2":30.254,"lo1":-89.0895,"lo2":-89.0444,"dy":0.0017,"dx":0.0017,"nx":28,"ny":28,"refTime":"2025-11-12T03:00:00:Z","depth":"4","parameterNumber":3,"parameterNumberName":"V-component_of_CURRENTS"},"data":[0,0,0,0,0,0,0,0,0,0,0,0,0,0,0,0,0,0,0,0,0,0,0,0,0,0,0,0,0,0,0,0,0,0,0,0,0,0,0,0,0,0,0,0,0,0,0,0,0,0,0,0,0,0,0,0,0,0,-0.0014,-0.0014,0,-0.0036,-0.0037,-0.0037,-0.0049,-0.0049,-0.0049,-0.0049,-0.0085,-0.0087,-0.0088,0,0,0,0,0,0,0,0,0,0,0,0,0,-0.0018,-0.0017,-0.0014,-0.0014,-0.0014,-0.0036,-0.0037,-0.0037,-0.0049,-0.0049,-0.0049,-0.0048,-0.0085,-0.0086,-0.0088,0,0,0,0,0,0,0,0,0,0,0,0,0,-0.0028,-0.0017,-0.0014,-0.0021,-0.0022,-0.0036,-0.0037,-0.0038,-0.0049,-0.0049,-0.0049,-0.0048,-0.0085,-0.0086,-0.0088,-0.0105,0,0,-0.0093,-0.0094,0,0,0,0,0,0,0,0,-0.0027,-0.0028,-0.002,-0.0021,-0.0021,-0.0038,-0.0052,-0.006,-0.0049,-0.0041,-0.0049,-0.0048,-0.007,-0.0073,-0.008,-0.0106,-0.0108,-0.0094,-0.0095,-0.0095,-0.0096,0,0,0,0,0,0,0,-0.0026,-0.0027,-0.0025,-0.002,-0.0021,-0.0035,-0.0036,-0.0054,-0.0059,-0.0042,-0.0042,-0.0041,-0.007,-0.0079,-0.0081,-0.0109,-0.0094,-0.0095,-0.0096,-0.0097,-0.0172,-0.0173,0,0,0,0,0,0,-0.0017,-0.0026,-0.0025,-0.0026,-0.0021,-0.0035,-0.0036,-0.0035,-0.0058,-0.0061,-0.0041,-0.0042,-0.0076,-0.0079,-0.0083,-0.0116,-0.0095,-0.0097,-0.0098,-0.0171,-0.0172,-0.0173,0,0,0,0,0,0,-0.0017,-0.0017,-0.0024,-0.0025,-0.0026,-0.0035,-0.0033,-0.0035,-0.0044,-0.0057,-0.0061,-0.0048,-0.0076,-0.008,-0.0107,-0.0117,-0.0098,-0.0099,-0.017,-0.0172,-0.0173,-0.0175,0,0,0,0,0,0,-0.0017,-0.0017,-0.0017,-0.0024,-0.0026,-0.0035,-0.0033,-0.0036,-0.0043,-0.0043,-0.0064,-0.0067,-0.0076,-0.0104,-0.0108,-0.0119,-0.0101,-0.0169,-0.0171,-0.0172,-0.0174,-0.0177,-0.0179,0,0,0,0,0,-0.0017,-0.002,-0.0017,-0.0017,-0.0024,-0.0035,-0.0038,-0.0045,-0.0043,-0.0052,-0.0068,-0.0066,-0.0118,-0.0106,-0.0111,-0.0123,-0.0168,-0.017,-0.0172,-0.0173,-0.0176,-0.0179,0,0,0,0,0,0,-0.0027,-0.0021,-0.0018,-0.002,-0.0027,-0.0037,-0.0043,-0.0046,-0.0066,-0.0067,-0.0079,-0.0084,-0.0112,-0.012,-0.0106,-0.0151,-0.0143,-0.0146,-0.0142,-0.0145,-0.0147,-0.0148,-0.0102,0,0,0,0,0,-0.0026,-0.0024,-0.0025,-0.0028,-0.0029,-0.0036,-0.0042,-0.0046,-0.0061,-0.0068,-0.0083,-0.0102,-0.0126,-0.0136,-0.0157,-0.0181,-0.0182,-0.0192,-0.0195,-0.0197,-0.0201,-0.0216,-0.022,-0.018,-0.018,-0.018,0,0,-0.0032,-0.0028,-0.0028,-0.003,-0.0034,-0.0046,-0.004,-0.0049,-0.0065,-0.007,-0.0099,-0.0112,-0.0135,-0.0163,-0.0176,-0.017,-0.0208,-0.0199,-0.0201,-0.0205,-0.0219,-0.0222,-0.0225,-0.0182,-0.0182,-0.0181,0,0,-0.0044,-0.0037,-0.004,-0.0046,-0.0049,-0.0055,-0.0057,-0.0068,-0.0077,-0.0103,-0.0114,-0.0135,-0.0166,-0.0185,-0.0199,-0.0229,-0.0222,-0.0234,-0.0243,-0.0257,-0.026,-0.0263,-0.026,-0.0263,-0.0232,-0.0232,-0.0232,0,-0.0053,-0.0055,-0.0046,-0.0054,-0.0062,-0.0059,-0.0074,-0.0085,-0.0107,-0.0119,-0.0114,-0.0166,-0.0179,-0.0217,-0.0226,-0.0234,-0.0233,-0.0227,-0.0259,-0.0261,-0.0264,-0.0261,-0.0264,-0.0232,-0.0232,-0.0232,-0.0232,0,-0.0068,-0.0073,-0.0077,-0.0083,-0.0093,-0.0105,-0.0114,-0.0128,-0.0135,-0.0146,-0.018,-0.0198,-0.0227,-0.0234,-0.0238,-0.0268,-0.0258,-0.0259,-0.0246,-0.0268,-0.0264,-0.0266,-0.0233,-0.0233,-0.0233,-0.0233,0,0,-0.008,-0.0086,-0.0088,-0.0098,-0.011,-0.0121,-0.0144,-0.0167,-0.0184,-0.02,-0.0225,-0.0258,-0.0257,-0.0273,-0.0279,-0.0288,-0.03,-0.0279,-0.0279,-0.0268,-0.0318,-0.0288,-0.0288,-0.0302,-0.0303,-0.0304,-0.0303,0,-0.0097,-0.0114,-0.0116,-0.0144,-0.0156,-0.0164,-0.0187,-0.0207,-0.022,-0.0243,-0.0256,-0.0283,-0.0275,-0.0286,-0.0295,-0.0303,-0.0309,-0.03,-0.0306,-0.0307,-0.0271,-0.0292,-0.0306,-0.0305,-0.0305,-0.0306,-0.0306,0,-0.0113,-0.0122,-0.0146,-0.0173,-0.0179,-0.0198,-0.0231,-0.0251,-0.0277,-0.0287,-0.0306,-0.0313,-0.0334,-0.032,-0.0338,-0.033,-0.0327,-0.0325,-0.0325,-0.03,-0.0283,-0.0283,-0.0311,-0.0311,-0.031,-0.031,-0.031,0,-0.0123,-0.0147,-0.0167,-0.0175,-0.0202,-0.0221,-0.0238,-0.0265,-0.0284,-0.0311,-0.0323,-0.0346,-0.0358,-0.036,-0.0352,-0.0347,-0.0361,-0.0356,-0.0326,-0.0324,-0.0347,-0.0344,-0.0371,-0.0371,-0.0371,-0.0371,-0.0371,0,-0.0139,-0.0158,-0.0172,-0.0184,-0.0218,-0.0231,-0.0267,-0.0285,-0.031,-0.0333,-0.0343,-0.0361,-0.0369,-0.0374,-0.0363,-0.0349,-0.0371,-0.0332,-0.0327,-0.0347,-0.0345,-0.0348,-0.0345,-0.0371,-0.0371,-0.0371,-0.0371,0,-0.0151,-0.0158,-0.0183,-0.021,-0.0222,-0.0245,-0.0281,-0.0306,-0.0321,-0.035,-0.0358,-0.0378,-0.0374,-0.037,-0.0373,-0.0362,-0.0352,-0.0342,-0.0355,-0.035,-0.0301,-0.0298,-0.0311,-0.031,-0.0309,-0.0309,-0.0308,0,-0.0159,-0.0169,-0.0199,-0.0217,-0.0231,-0.0263,-0.0289,-0.0312,-0.0332,-0.0358,-0.0372,-0.0377,-0.0382,-0.036,-0.0356,-0.0329,-0.0324,-0.0325,-0.0322,-0.0304,-0.0297,-0.0296,-0.0295,-0.0307,-0.0307,-0.0307,-0.0306,0,-0.0176,-0.0182,-0.0201,-0.0232,-0.0261,-0.0296,-0.0326,-0.0339,-0.0362,-0.0372,-0.0376,-0.0369,-0.0362,-0.0346,-0.0325,-0.0309,-0.033,-0.0317,-0.0319,-0.0315,-0.0299,-0.0293,-0.0292,-0.0304,-0.0304,-0.0304,-0.0304,0,-0.0188,-0.0202,-0.0221,-0.025,-0.0286,-0.0321,-0.0337,-0.0354,-0.0369,-0.038,-0.038,-0.0369,-0.0368,-0.0335,-0.0318,-0.0294,-0.0287,-0.0291,-0.0294,-0.0297,-0.029,-0.0267,-0.0262,0,0,0,0,0,-0.0201,-0.0214,-0.024,-0.0274,-0.0308,-0.0327,-0.0361,-0.0371,-0.0382,-0.0379,-0.0374,-0.0358,-0.0328,-0.0323,-0.0291,-0.0307,-0.0291,-0.027,-0.0298,-0.0289,-0.0292,-0.0283,0,0,0,0,0,0,-0.0212,-0.0233,-0.024,-0.0284,-0.0308,-0.035,-0.0372,-0.0381,-0.0373,-0.0373,-0.0352,-0.0345,-0.0311,-0.0332,-0.0284,-0.028,-0.0295,-0.0255,-0.0255,-0.0287,-0.029,-0.0292,-0.0285,0,0,0,0,0]}]]